Lincoln, CA

11:30 AM PST on December 06, 2016 (GMT -0800)
Lincoln Regional-Harder

Weather History for KLHM - September, 2013

Change the Weather History Date:

Sunday, September 8, 2013

  Actual Average (KAUN) Record (KAUN)
Temperature  
Mean Temperature 76 °F -  
Max Temperature 98 °F 88 °F 104 °F (1957)
Min Temperature 55 °F 59 °F 49 °F (1956)
Cooling Degree Days 12    
Growing Degree Days 26 (Base 50)    
Moisture  
Dew Point 44 °F    
Average Humidity 37    
Maximum Humidity 72    
Minimum Humidity 10    
Precipitation  
Precipitation 0.00 in - - ()
Sea Level Pressure  
Sea Level Pressure 29.78 in    
Wind  
Wind Speed 5 mph (NNW)    
Max Wind Speed 12 mph    
Max Gust Speed 16 mph    
Visibility 10 miles    
Events      
Averages and records for this station are not official NWS values.
T = Trace of Precipitation, MM = Missing Value Source: NWS Daily Summary

Daily Weather History Graph

Daily Weather History Graph

Search for Another Location

Airport or City:

Trip Planner

Search our weather history database for the weather conditions in past years. The results will help you decide how hot, cold, wet, or windy it might be!

Date:

Astronomy

Sep. 08, 2013 Rise Set
Actual Time 6:40 AM PDT 7:24 PM PDT
Civil Twilight 6:13 AM PDT 7:51 PM PDT
Nautical Twilight 5:41 AM PDT 8:23 PM PDT
Astronomical Twilight 5:09 AM PDT 8:55 PM PDT
Moon 10:01 AM PDT (9/8) 9:05 PM PDT (9/8)
Length of Visible Light 13h 37m
Length of Day
12h 43m
Waxing Crescent, 12% of the Moon is Illuminated
Sep 8
Waxing Crescent
Sep 12
First Quarter
Sep 19
Full
Sep 26
Last Quarter
Oct 4
New

Hourly Weather History & Observations

Time (PDT) Temp. Dew Point Humidity Pressure Visibility Wind Dir Wind Speed Gust Speed Precip Events Conditions
12:15 AM 62.6 °F 48.2 °F 59% 29.80 in 10.0 mi East 5.8 mph - N/A   Clear
12:35 AM 62.6 °F 46.4 °F 55% 29.80 in 10.0 mi East 4.6 mph - N/A   Clear
12:55 AM 68.0 °F 46.4 °F 46% 29.80 in 10.0 mi East 5.8 mph - N/A   Clear
1:15 AM 66.2 °F 46.4 °F 49% 29.81 in 10.0 mi East 4.6 mph - N/A   Clear
1:35 AM 64.4 °F 46.4 °F 52% 29.80 in 10.0 mi East 6.9 mph - N/A   Clear
1:55 AM 62.6 °F 46.4 °F 55% 29.80 in 10.0 mi East 6.9 mph - N/A   Clear
2:15 AM 62.6 °F 46.4 °F 55% 29.80 in 10.0 mi East 9.2 mph - N/A   Clear
2:35 AM 62.6 °F 46.4 °F 55% 29.80 in 10.0 mi East 8.1 mph - N/A   Clear
2:55 AM 64.4 °F 46.4 °F 52% 29.80 in 10.0 mi East 8.1 mph - N/A   Clear
3:15 AM 68.0 °F 46.4 °F 46% 29.80 in 10.0 mi Calm Calm - N/A   Clear
3:35 AM 66.2 °F 46.4 °F 49% 29.80 in 10.0 mi Calm Calm - N/A   Clear
3:55 AM 62.6 °F 46.4 °F 55% 29.81 in 10.0 mi WNW 5.8 mph - N/A   Clear
4:15 AM 62.6 °F 46.4 °F 55% 29.81 in 10.0 mi West 5.8 mph - N/A   Clear
4:35 AM 62.6 °F 46.4 °F 55% 29.81 in 10.0 mi West 4.6 mph - N/A   Clear
4:55 AM 62.6 °F 48.2 °F 59% 29.81 in 10.0 mi Calm Calm - N/A   Clear
5:15 AM 60.8 °F 48.2 °F 63% 29.81 in 10.0 mi Calm Calm - N/A   Clear
5:35 AM 55.4 °F 46.4 °F 72% 29.82 in 10.0 mi North 3.5 mph - N/A   Clear
5:55 AM 55.4 °F 46.4 °F 72% 29.82 in 10.0 mi Calm Calm - N/A   Clear
6:15 AM 55.4 °F 46.4 °F 72% 29.83 in 10.0 mi Calm Calm - N/A   Clear
6:35 AM 55.4 °F 46.4 °F 72% 29.83 in 10.0 mi NE 3.5 mph - N/A   Clear
6:55 AM 55.4 °F 46.4 °F 72% 29.83 in 10.0 mi Calm Calm - N/A   Clear
7:15 AM 59.0 °F 46.4 °F 63% 29.83 in 10.0 mi Calm Calm - N/A   Clear
7:35 AM 60.8 °F 48.2 °F 63% 29.83 in 10.0 mi Calm Calm - N/A   Clear
7:55 AM 64.4 °F 50.0 °F 59% 29.83 in 10.0 mi Calm Calm - N/A   Clear
8:15 AM 68.0 °F 46.4 °F 46% 29.84 in 10.0 mi Calm Calm - N/A   Clear
8:35 AM 71.6 °F 46.4 °F 41% 29.84 in 10.0 mi Calm Calm - N/A   Clear
8:55 AM 73.4 °F 44.6 °F 36% 29.84 in 10.0 mi North 3.5 mph - N/A   Clear
9:15 AM 77.0 °F 44.6 °F 32% 29.84 in 10.0 mi Calm Calm - N/A   Clear
9:35 AM 78.8 °F 44.6 °F 30% 29.84 in 10.0 mi Calm Calm - N/A   Clear
9:55 AM 80.6 °F 44.6 °F 28% 29.84 in 10.0 mi Calm Calm - N/A   Clear
10:15 AM 82.4 °F 46.4 °F 28% 29.83 in 10.0 mi WNW 3.5 mph - N/A   Clear
10:35 AM 84.2 °F 44.6 °F 25% 29.83 in 10.0 mi WNW 4.6 mph - N/A   Clear
10:55 AM 86.0 °F 44.6 °F 23% 29.83 in 10.0 mi NNW 5.8 mph - N/A   Clear
11:15 AM 87.8 °F 46.4 °F 24% 29.83 in 10.0 mi WNW 5.8 mph - N/A   Clear
11:35 AM 87.8 °F 46.4 °F 24% 29.82 in 10.0 mi WNW 5.8 mph - N/A   Clear
11:55 AM 89.6 °F 46.4 °F 22% 29.82 in 10.0 mi WNW 5.8 mph - N/A   Clear
12:15 PM 89.6 °F 44.6 °F 21% 29.81 in 10.0 mi WNW 9.2 mph - N/A   Clear
12:35 PM 91.4 °F 44.6 °F 20% 29.80 in 10.0 mi WNW 11.5 mph - N/A   Clear
12:55 PM 93.2 °F 42.8 °F 17% 29.80 in 10.0 mi WNW 9.2 mph - N/A   Clear
1:15 PM 95.0 °F 44.6 °F 18% 29.79 in 10.0 mi WNW 9.2 mph - N/A   Clear
1:35 PM 95.0 °F 42.8 °F 16% 29.79 in 10.0 mi WNW 9.2 mph - N/A   Clear
1:55 PM 95.0 °F 44.6 °F 18% 29.78 in 10.0 mi WNW 11.5 mph - N/A   Clear
2:15 PM 96.8 °F 44.6 °F 17% 29.78 in 10.0 mi WNW 9.2 mph 16.1 mph N/A   Clear
2:35 PM 96.8 °F 44.6 °F 17% 29.77 in 10.0 mi WNW 9.2 mph - N/A   Clear
2:55 PM 96.8 °F 41.0 °F 15% 29.76 in 10.0 mi WNW 6.9 mph - N/A   Clear
3:15 PM 96.8 °F 37.4 °F 13% 29.75 in 10.0 mi WNW 6.9 mph - N/A   Clear
3:35 PM 98.6 °F 33.8 °F 10% 29.74 in 10.0 mi WNW 8.1 mph - N/A   Clear
3:55 PM 98.6 °F 33.8 °F 10% 29.73 in 10.0 mi WNW 8.1 mph - N/A   Clear
4:15 PM 98.6 °F 35.6 °F 11% 29.73 in 10.0 mi WNW 6.9 mph - N/A   Clear
4:35 PM 98.6 °F 37.4 °F 12% 29.72 in 10.0 mi NW 6.9 mph - N/A   Clear
4:55 PM 98.6 °F 37.4 °F 12% 29.71 in 10.0 mi NW 5.8 mph - N/A   Clear
5:15 PM 98.6 °F 37.4 °F 12% 29.71 in 10.0 mi West 5.8 mph - N/A   Clear
5:35 PM 98.6 °F 37.4 °F 12% 29.70 in 10.0 mi WNW 5.8 mph - N/A   Clear
5:55 PM 98.6 °F 35.6 °F 11% 29.70 in 10.0 mi West 3.5 mph - N/A   Clear
6:15 PM 96.8 °F 33.8 °F 11% 29.70 in 10.0 mi West 3.5 mph - N/A   Clear
6:35 PM 95.0 °F 39.2 °F 14% 29.69 in 10.0 mi NW 4.6 mph - N/A   Clear
6:55 PM 93.2 °F 41.0 °F 16% 29.69 in 10.0 mi WNW 4.6 mph - N/A   Clear
7:15 PM 89.6 °F 41.0 °F 18% 29.69 in 10.0 mi NW 3.5 mph - N/A   Clear
7:35 PM 87.8 °F 42.8 °F 21% 29.69 in 10.0 mi Calm Calm - N/A   Clear
7:55 PM 84.2 °F 42.8 °F 23% 29.70 in 10.0 mi Calm Calm - N/A   Clear
8:15 PM 82.4 °F 42.8 °F 25% 29.70 in 10.0 mi Calm Calm - N/A   Clear
8:35 PM 78.8 °F 42.8 °F 28% 29.70 in 10.0 mi Calm Calm - N/A   Clear
8:55 PM 71.6 °F 44.6 °F 38% 29.71 in 10.0 mi ENE 8.1 mph - N/A   Clear
9:15 PM 69.8 °F 46.4 °F 43% 29.71 in 10.0 mi East 5.8 mph - N/A   Clear
9:35 PM 68.0 °F 46.4 °F 46% 29.72 in 10.0 mi ENE 4.6 mph - N/A   Clear
9:55 PM 66.2 °F 48.2 °F 52% 29.72 in 10.0 mi East 6.9 mph - N/A   Clear
10:15 PM 68.0 °F 50.0 °F 52% 29.72 in 10.0 mi ENE 6.9 mph - N/A   Clear
10:35 PM 64.4 °F 48.2 °F 56% 29.73 in 10.0 mi East 6.9 mph - N/A   Clear
10:55 PM 64.4 °F 48.2 °F 56% 29.73 in 10.0 mi ENE 5.8 mph - N/A   Clear
11:15 PM 64.4 °F 46.4 °F 52% 29.73 in 10.0 mi East 6.9 mph - N/A   Clear
11:35 PM 64.4 °F 46.4 °F 52% 29.73 in 10.0 mi East 6.9 mph - N/A   Clear
11:55 PM 62.6 °F 46.4 °F 55% 29.72 in 10.0 mi East 9.2 mph - N/A   Clear